STARLINK-38064, 69988

Orbit data source: Space-Track

STARLINK-38064, 69988 is a payload satellite owned by SpaceX/Seattle (US) in SSO that was launched on Sat, 11 Jul 2026 UTC via an FALCON 9 launch vehicle from the Air Force Western Test Range (AFWTR). Payload-class satellites include a variety of spacecraft equipped with specific instruments for various scientific and technological missions. These include communications satellites like Starlink; space stations such as the ISS; scientific satellites like the Hubble; Earth observation satellites from companies like Planet Labs, Umbra, and HawkEye 360; GPS; miniature CubeSats for education and research; and military/defense satellites.

Loading next visibility...
Identifier
69988, 2026-159P
Orbit
SSO
Country
Flag of USUS
Related business
Manufacturer
SpaceX/Seattle
Mission
Operational spacecraft
Bus & Motor
STARLINK V2MO, Unknown motor
Mass
575 kg wet, ~530 kg dry
Launch date (UTC)
2026-07-11 (1 month ago)
Launch vehicle
FALCON 9
Launch site
Air Force Western Test Range (AFWTR)
Object type
Payload
Rocket body
Debris
Shape & HBR
BOX, 17.7 m
Radar Cross Section
Large (>1 m²)

Expand to show TLE details & history
Last TLE update: 12 hours ago

TLE from 12 hours ago
0 STARLINK-38064
1 69988U 26159P   26228.54853400  .00192410  00000-0  12615-2 0  9996
2 69988  97.2841  68.9258 0000973  35.4449 324.6881 15.75199781  6965
Epoch: 2026-08-16T13:09Z
TLE epoch observation values (Epoch: 2026-08-16T13:09:53.337Z)
Latitude
-0.00001°
Longitude
-93.48991°
Altitude
346.697 km
Speed
7.701 km/s
True Right ascension
04h 35m 42s
True Declination
0° 00' 00"
Sunlit
Object was in daylight at epoch
Visualization orbit readout
Latitude
Unknown
Longitude
Unknown
Altitude
Unknown
Speed
Unknown
Apparent Right ascension
Unknown
Apparent Declination
Unknown
Sunlit
N/A
Visualization observer readout
Local Sidereal Time
15:56:49
Azimuth
Unknown
Elevation
Unknown
Doppler factor
Unknown
Orbital elements
Apogee altitude
341.604 km
Perigee altitude
340.296 km
Semi-major axis
6,719.087 km
Eccentricity
0.0001
Inclination
97.2841°
RAAN
68.9258°
Arg. of periapsis
35.4449°
True anomaly
324.68165°
Mean anomaly
324.6881°
Eccentric anomaly
324.68488°
Mean motion
3.94074 °/min
Orbital period
91.35 mins
BSTAR
0.0012615
Loading maneuver chart data...
Computing Atmospheric mass density...
Loading historical data...
Loading historical data...
Loading historical data...
Loading historical data...
Loading historical data...
Loading historical data...
Loading historical data...

Documentation

Showing up to 5 results
|